Other Surface Observations
Issued by NWS Jacksonville, FL

Home | Current Version | Previous Version | Text Only | Print | Product List | Glossary On
Versions: 1 2 3 4 5 6 7 8 9 10 11 12 13 14 15 16 17 18 19 20 21 22 23 24 25 26 27 28 29 30 31 32 33 34 35 36 37 38 39 40 41 42 43 44 45 46 47 48 49 50
411
SXUS52 KJAX 182213
OSOJAX
OTHER SURFACE OBSERVATIONS
NATIONAL WEATHER SERVICE JACKSONVILLE FL
600 PM EDT WED OCT 18 2017

FLZ020>025-030>033-035>038-040-182300-
...FLORIDA...

CITY           SKY/WX    TMP DP  RH WIND       PRES   REMARKS
CECIL FIELD    PTSUNNY   75  68  78 NE13G25   30.16R
HERLONG FIELD  NOT AVBL
FERNANDINA BCH NOT AVBL
LAKE CITY      FAIR      73  64  73 NE9G18    30.16R
JUNIPER SPGS   NOT AVBL
BUNNELL        NOT AVBL
KEYSTONE HGTS  FAIR      77  64  65 NE12G18   30.15R
$$

GAZ132>136-149>154-162>166-182300-
...GEORGIA...

CITY           SKY/WX    TMP DP  RH WIND       PRES   REMARKS
JESUP          NOT AVBL
HOMERVILLE     FAIR      77  59  53 NE5       30.19S
SWAINSBORO     FAIR      72  45  37 MISG      30.24S
CORDELE        NOT AVBL
EASTMAN        FAIR      75  13   9 NE7       30.25R
$$

PLEASE NOTE:  THESE OBSERVATIONS ARE NOT QUALITY CONTROLLED AND MAY
NOT BE AVAILABLE AT ALL TIMES.
$$




USA.gov is the U.S. government's official web portal to all federal, state and local government web resources and services.